Tracking 30070 objects as of 15-Jan-2025
HD Live streaming from Space Station
objects crossing your sky now

SL-19 DEB

Track SL-19 DEB now!
10-day predictions


NORAD ID: 23493
Int'l Code: 1994-085R
Perigee: 1,876.4 km
Apogee: 2,139.6 km
Inclination: 64.9 °
Period: 127.2 minutes
Semi major axis: 8378 km
RCS: 0.0464 m2 (small)
Launch date: December 26, 1994
Source: Commonwealth of Independent States (former USSR) (CIS)
Launch site: TYURATAM MISSILE AND SPACE COMPLEX (TTMTR)

Note: This is SATELLITE DEBRIS
Your satellite tracking list
Your tracking list is empty




NASA's NSSDC Master Catalog

Two Line Element Set (TLE):
1 23493U 94085R   25014.96726696  .00000014  00000-0  15423-2 0  9992
2 23493  64.9433 357.6616 0157033 278.7615 112.6196 11.31917712242075
Source of the keplerian elements: AFSPC